Temp
-15 -15 -15 -15 -15 -15 -15 -15 -15 -15 -15 -15 -15 -15 -15 -15 -15 -14 -14 -14 -14 -14 -14 -14 -14 -14 -14 -14 -14 -14 -14 -14 -14 -14 -15 -15 -14 -14 -14 -14 -15 -14
-15 -15 -16 -16 -15 -15 -15 -15 -15 -15 -15 -15 -15 -15 -15 -15 -15 -15 -14 -14 -14 -14 -14 -14 -14 -14 -14 -14 -14 -14 -14 -14 -14 -14 -14 -14 -14 -14 -14 -14 -14 -14
-15 -15 -16 -16 -15 -15 -15 -15 -15 -15 -15 -15 -15 -15 -15 -15 -15 -15 -15 -15 -15 -15 -15 -14 -14 -14 -14 -14 -14 -14 -14 -14 -14 -14 -14 -14 -14 -14 -14 -14 -14 -14
-15 -16 -16 -16 -15 -15 -15 -15 -15 -15 -15 -15 -15 -15 -15 -15 -15 -15 -15 -15 -15 -15 -15 -15 -15 -15 -15 -14 -14 -14 -14 -14 -14 -14 -14 -14 -14 -14 -14 -14 -15 -15
-16 -15 -15 -15 -15 -15 -15 -15 -15 -15 -15 -15 -15 -15 -16 -16 -15 -15 -15 -15 -15 -15 -15 -15 -15 -15 -15 -15 -14 -14 -14 -14 -14 -14 -14 -14 -14 -14 -14 -15 -15 -15
-16 -16 -15 -15 -15 -15 -15 -15 -15 -15 -15 -15 -15 -16 -16 -16 -16 -16 -16 -15 -15 -15 -15 -15 -15 -15 -15 -15 -14 -14 -14 -14 -14 -14 -14 -15 -15 -15 -15 -15 -15 -15
-16 -16 -16 -16 -16 -16 -16 -16 -16 -15 -15 -15 -16 -16 -16 -15 -16 -16 -16 -16 -15 -15 -15 -15 -15 -15 -15 -15 -15 -15 -15 -14 -14 -14 -14 -15 -15 -15 -15 -15 -15 -14
-16 -16 -16 -16 -16 -16 -16 -16 -16 -15 -15 -15 -16 -16 -16 -16 -16 -16 -16 -16 -16 -15 -15 -15 -15 -15 -15 -15 -15 -15 -15 -15 -15 -14 -14 -15 -15 -15 -15 -15 -15 -14
-16 -16 -16 -16 -16 -16 -16 -16 -15 -15 -15 -15 -16 -16 -16 -16 -16 -16 -16 -16 -16 -16 -15 -15 -15 -15 -15 -15 -15 -15 -15 -15 -15 -15 -15 -15 -15 -15 -15 -15 -15 -15
-16 -15 -15 -15 -16 -16 -16 -15 -15 -15 -16 -16 -16 -16 -16 -16 -16 -16 -16 -16 -16 -16 -16 -16 -16 -16 -15 -15 -15 -15 -15 -15 -15 -15 -15 -15 -15 -15 -15 -15 -15 -15
-16 -15 -15 -15 -15 -15 -15 -15 -15 -15 -16 -16 -16 -16 -16 -16 -16 -16 -16 -16 -16 -16 -16 -16 -16 -16 -15 -15 -15 -15 -15 -15 -15 -15 -15 -15 -15 -15 -15 -15 -15 -15
-16 -16 -15 -15 -15 -15 -15 -15 -15 -15 -16 -16 -16 -16 -16 -16 -16 -16 -16 -16 -16 -16 -16 -16 -16 -16 -16 -16 -15 -15 -15 -15 -15 -15 -15 -15 -15 -16 -16 -16 -16 -15
-16 -16 -16 -15 -15 -15 -15 -15 -15 -15 -15 -16 -16 -16 -16 -16 -16 -16 -16 -16 -16 -16 -16 -16 -16 -16 -16 -16 -16 -16 -16 -16 -16 -16 -16 -16 -16 -16 -16 -16 -16 -16
-16 -16 -16 -16 -15 -15 -15 -15 -15 -15 -15 -15 -16 -16 -16 -16 -16 -16 -16 -16 -16 -16 -16 -16 -16 -16 -16 -16 -16 -16 -16 -16 -16 -16 -16 -16 -16 -16 -16 -16 -16 -16
-16 -15 -16 -16 -15 -15 -15 -15 -15 -15 -16 -16 -16 -16 -16 -16 -16 -16 -16 -16 -16 -16 -16 -17 -17 -17 -16 -16 -16 -16 -16 -16 -16 -16 -16 -16 -16 -16 -16 -16 -16 -16
-16 -16 -16 -16 -16 -16 -15 -15 -16 -16 -16 -16 -16 -16 -16 -16 -16 -16 -16 -16 -16 -17 -17 -17 -17 -17 -17 -17 -17 -17 -17 -17 -17 -17 -17 -17 -17 -17 -17 -17 -17 -17
-15 -16 -16 -16 -16 -16 -16 -16 -16 -16 -16 -16 -16 -16 -16 -16 -16 -16 -16 -16 -17 -17 -17 -17 -17 -17 -17 -17 -17 -17 -17 -17 -17 -17 -17 -17 -17 -17 -17 -17 -17 -17
-16 -16 -16 -16 -16 -16 -16 -16 -16 -16 -16 -16 -16 -16 -16 -16 -16 -17 -17 -17 -17 -17 -17 -17 -17 -17 -17 -17 -17 -17 -17 -17 -17 -17 -17 -17 -17 -17 -17 -17 -17 -17
-16 -16 -16 -16 -16 -16 -16 -16 -16 -16 -16 -16 -16 -16 -16 -17 -17 -17 -17 -17 -17 -18 -18 -18 -17 -17 -17 -18 -18 -18 -18 -18 -18 -18 -18 -18 -18 -18 -18 -18 -18 -18
-16 -16 -16 -16 -16 -16 -16 -16 -16 -16 -16 -16 -16 -16 -17 -17 -17 -17 -17 -17 -17 -17 -18 -18 -18 -18 -18 -18 -18 -18 -18 -18 -18 -18 -18 -18 -18 -18 -18 -18 -18 -18
-17 -17 -17 -17 -17 -16 -16 -16 -17 -17 -17 -16 -16 -16 -17 -17 -17 -17 -17 -17 -17 -17 -17 -18 -18 -18 -18 -18 -18 -18 -18 -18 -18 -18 -18 -18 -18 -18 -18 -18 -18 -18
-17 -17 -17 -17 -17 -17 -17 -17 -17 -17 -17 -17 -17 -17 -17 -17 -17 -17 -17 -17 -17 -17 -17 -18 -18 -18 -18 -18 -18 -18 -18 -18 -19 -19 -19 -19 -19 -19 -19 -19 -19 -19
-17 -17 -17 -17 -17 -17 -17 -17 -17 -17 -18 -18 -17 -17 -17 -17 -17 -17 -17 -18 -18 -18 -18 -18 -18 -18 -18 -18 -18 -18 -18 -18 -18 -18 -19 -19 -19 -19 -19 -19 -19 -19
-17 -17 -17 -17 -17 -17 -17 -17 -17 -18 -18 -18 -18 -18 -17 -18 -18 -18 -18 -18 -18 -18 -18 -18 -18 -18 -18 -18 -18 -18 -18 -18 -18 -18 -19 -19 -19 -19 -19 -19 -19 -19
-17 -17 -17 -17 -17 -18 -18 -18 -18 -18 -18 -18 -18 -18 -18 -18 -18 -18 -18 -18 -19 -19 -19 -19 -19 -19 -19 -19 -19 -18 -18 -19 -19 -19 -19 -19 -19 -19 -19 -19 -19 -19
-17 -18 -18 -18 -18 -18 -18 -18 -18 -18 -18 -18 -18 -18 -18 -18 -18 -18 -18 -19 -19 -19 -19 -19 -19 -19 -19 -19 -19 -19 -19 -19 -19 -19 -19 -19 -19 -19 -19 -19 -19 -19
Height
5758 5760 5762 5764 5766 5767 5769 5770 5770 5771 5772 5773 5774 5776 5777 5778 5778 5778 5779 5780 5780 5781 5782 5783 5784 5784 5785 5785 5786 5787 5788 5789 5790 5790 5790 5790 5790 5790 5791 5792 5793 5793
5758 5760 5762 5763 5764 5766 5767 5767 5768 5769 5771 5772 5774 5775 5776 5777 5777 5777 5777 5778 5779 5780 5780 5781 5782 5782 5783 5783 5784 5785 5786 5786 5787 5787 5787 5788 5788 5788 5789 5790 5791 5791
5757 5759 5761 5762 5762 5763 5765 5766 5767 5769 5770 5771 5773 5774 5775 5775 5776 5776 5776 5776 5777 5779 5779 5780 5780 5781 5781 5782 5782 5783 5784 5784 5785 5785 5785 5785 5786 5786 5787 5788 5789 5789
5756 5758 5759 5760 5761 5762 5764 5766 5767 5768 5769 5770 5771 5772 5773 5774 5774 5774 5775 5775 5776 5777 5778 5778 5779 5779 5780 5780 5781 5781 5782 5782 5783 5783 5783 5783 5784 5784 5785 5785 5786 5786
5756 5758 5759 5759 5760 5762 5763 5765 5767 5768 5769 5769 5770 5771 5771 5772 5772 5773 5773 5774 5774 5775 5776 5776 5777 5777 5778 5778 5779 5780 5780 5780 5781 5781 5781 5781 5782 5782 5783 5783 5784 5784
5755 5757 5758 5758 5759 5760 5762 5763 5765 5767 5768 5768 5769 5769 5770 5770 5770 5771 5772 5772 5773 5773 5774 5775 5775 5776 5776 5776 5777 5778 5778 5779 5779 5779 5779 5780 5780 5781 5781 5782 5782 5782
5753 5754 5756 5756 5757 5758 5759 5761 5763 5764 5766 5767 5767 5768 5768 5768 5768 5769 5769 5770 5771 5772 5772 5773 5773 5774 5774 5775 5775 5776 5777 5777 5778 5778 5778 5778 5779 5779 5779 5780 5780 5781
5751 5752 5754 5755 5756 5756 5757 5759 5761 5762 5763 5764 5765 5766 5766 5766 5767 5767 5767 5768 5769 5769 5770 5771 5771 5772 5772 5773 5774 5774 5775 5776 5776 5777 5777 5777 5777 5777 5778 5778 5779 5779
5750 5752 5753 5753 5754 5754 5755 5757 5758 5760 5761 5762 5763 5763 5764 5764 5765 5765 5765 5765 5766 5767 5768 5769 5770 5770 5771 5771 5772 5772 5773 5774 5775 5775 5775 5775 5775 5776 5776 5776 5777 5777
5750 5751 5751 5752 5752 5752 5753 5754 5756 5757 5758 5759 5760 5761 5761 5762 5762 5763 5763 5763 5763 5764 5766 5767 5768 5768 5769 5769 5770 5771 5771 5772 5773 5773 5774 5774 5774 5774 5774 5774 5775 5775
5747 5748 5749 5749 5750 5750 5751 5752 5753 5755 5756 5757 5757 5758 5758 5759 5759 5760 5761 5761 5761 5762 5763 5764 5765 5766 5767 5767 5768 5768 5769 5770 5771 5771 5772 5772 5772 5772 5772 5772 5773 5773
5743 5744 5745 5746 5747 5748 5748 5749 5750 5751 5752 5753 5754 5755 5756 5756 5757 5757 5758 5758 5759 5759 5760 5761 5762 5763 5764 5764 5765 5766 5766 5767 5768 5769 5769 5769 5769 5769 5770 5770 5770 5770
5741 5742 5742 5744 5744 5745 5746 5747 5747 5747 5748 5750 5751 5752 5753 5754 5754 5755 5755 5756 5756 5757 5757 5758 5760 5761 5761 5762 5763 5763 5764 5765 5766 5766 5767 5767 5767 5767 5767 5767 5768 5768
5738 5738 5740 5741 5742 5742 5743 5743 5744 5744 5745 5747 5748 5749 5750 5751 5752 5752 5752 5753 5753 5754 5755 5756 5757 5758 5759 5760 5760 5761 5761 5762 5763 5763 5764 5764 5764 5764 5764 5765 5765 5766
5734 5735 5737 5738 5739 5739 5739 5739 5740 5741 5742 5743 5744 5746 5747 5748 5749 5749 5750 5750 5751 5751 5752 5753 5754 5755 5756 5756 5757 5758 5759 5759 5760 5761 5761 5761 5761 5761 5762 5762 5763 5763
5731 5732 5734 5735 5736 5736 5736 5736 5737 5738 5739 5740 5741 5742 5744 5746 5746 5747 5748 5748 5749 5749 5750 5751 5752 5752 5753 5753 5754 5755 5756 5757 5757 5758 5758 5758 5758 5759 5759 5760 5760 5761
5728 5730 5731 5732 5732 5733 5734 5734 5735 5735 5736 5738 5739 5740 5742 5743 5744 5745 5745 5746 5746 5747 5748 5748 5749 5750 5750 5750 5751 5752 5752 5753 5754 5755 5756 5756 5756 5756 5757 5757 5758 5758
5726 5728 5729 5729 5730 5731 5732 5733 5733 5734 5734 5735 5737 5738 5740 5740 5741 5742 5742 5743 5743 5744 5745 5745 5746 5746 5747 5747 5748 5748 5749 5750 5751 5752 5752 5753 5753 5754 5754 5754 5755 5755
5724 5725 5726 5728 5729 5730 5731 5731 5732 5732 5733 5734 5734 5735 5736 5737 5738 5739 5739 5739 5740 5740 5741 5742 5742 5743 5743 5744 5745 5745 5746 5747 5748 5748 5749 5749 5750 5750 5751 5751 5752 5752
5722 5723 5724 5726 5727 5728 5729 5729 5730 5730 5731 5732 5732 5732 5733 5734 5735 5736 5736 5736 5736 5737 5737 5738 5738 5739 5739 5740 5741 5742 5743 5744 5744 5745 5745 5746 5746 5747 5748 5748 5748 5749
5719 5720 5721 5723 5724 5725 5726 5726 5726 5727 5728 5729 5730 5730 5730 5731 5732 5732 5733 5733 5733 5733 5734 5734 5735 5735 5736 5736 5737 5738 5739 5740 5740 5741 5742 5742 5743 5743 5744 5744 5744 5745
5716 5717 5718 5719 5720 5722 5723 5724 5723 5724 5725 5726 5727 5728 5728 5729 5729 5729 5730 5730 5730 5730 5730 5731 5731 5732 5732 5733 5733 5734 5734 5735 5736 5736 5737 5738 5738 5739 5739 5739 5739 5739
5713 5714 5715 5716 5716 5718 5720 5720 5720 5720 5721 5723 5723 5725 5726 5726 5726 5726 5726 5726 5726 5726 5726 5727 5728 5728 5728 5729 5730 5730 5730 5730 5731 5732 5732 5733 5733 5733 5734 5734 5733 5733
5710 5711 5711 5712 5713 5714 5715 5716 5717 5717 5718 5719 5720 5722 5724 5723 5721 5722 5722 5722 5722 5722 5722 5723 5724 5724 5725 5725 5725 5725 5725 5726 5726 5727 5727 5728 5728 5728 5728 5728 5727 5727
5707 5708 5708 5709 5710 5711 5712 5713 5713 5713 5714 5715 5716 5717 5718 5718 5717 5718 5718 5718 5718 5719 5718 5719 5719 5720 5720 5720 5720 5721 5721 5720 5721 5721 5722 5722 5723 5723 5723 5722 5722 5721
5704 5705 5705 5706 5706 5707 5708 5708 5709 5709 5710 5710 5711 5712 5712 5713 5713 5713 5713 5714 5714 5714 5714 5714 5714 5714 5715 5715 5715 5715 5715 5715 5715 5715 5715 5716 5716 5716 5716 5716 5716 5715
Wind_Speed
30 29 27 26 24 23 21 21 21 21 21 21 20 19 19 18 17 16 14 14 14 14 14 14 14 14 15 16 16 17 16 16 16 15 15 14 15 16 16 15 14 14
29 28 27 25 24 23 22 21 20 19 19 19 18 18 17 17 16 15 15 14 14 14 14 14 15 15 16 17 17 18 18 18 18 17 16 15 15 16 16 16 15 15
27 27 26 26 25 24 23 21 19 18 17 16 15 16 16 16 16 16 16 16 15 15 15 15 16 16 17 17 18 18 18 18 18 17 16 15 15 15 16 15 15 15
26 26 26 27 26 25 23 21 18 16 16 15 15 15 16 17 17 18 18 17 17 16 16 16 17 17 16 16 16 16 16 17 17 17 17 17 16 16 15 15 15 15
21 22 23 23 24 24 23 20 16 15 16 15 15 16 16 17 18 18 18 19 18 18 17 17 18 17 16 16 14 14 14 15 15 16 16 16 16 16 16 16 16 16
16 18 20 21 23 23 21 19 16 16 16 15 14 16 16 17 18 19 19 20 20 19 19 19 18 17 17 16 14 13 13 14 14 15 15 14 14 15 16 16 16 16
15 16 18 19 21 21 20 20 18 17 17 15 15 16 17 16 17 18 20 21 21 21 20 20 20 19 17 16 15 13 13 13 14 14 13 13 13 14 15 15 16 15
15 16 17 18 19 19 20 21 20 18 17 17 18 19 20 19 18 18 19 21 22 22 22 22 22 21 19 17 16 15 14 14 14 14 14 14 14 14 15 16 16 16
15 16 18 19 20 21 21 22 21 19 17 17 20 22 23 23 21 20 20 21 22 23 23 23 23 22 21 19 18 17 16 16 16 16 15 15 15 16 16 17 17 17
15 16 18 20 21 22 23 23 23 20 18 18 20 22 23 23 22 21 20 20 21 23 23 23 22 21 21 20 19 19 18 18 18 17 17 16 16 17 17 18 18 19
15 17 19 20 21 21 22 23 22 22 21 19 19 21 21 21 21 20 19 19 20 22 24 24 23 21 21 21 21 21 21 21 20 19 18 17 17 17 18 18 18 19
18 18 20 20 21 21 21 21 22 22 23 22 21 20 19 19 20 19 18 18 18 21 24 26 26 25 24 23 23 24 23 22 21 21 20 19 18 18 18 18 19 20
21 20 20 20 22 22 21 20 20 21 21 21 23 22 19 18 19 18 18 18 19 21 23 26 27 28 27 26 26 25 24 23 22 21 21 20 19 19 19 19 20 20
24 23 22 21 22 24 25 24 25 26 25 23 24 25 20 18 17 16 17 17 17 19 22 23 25 27 27 26 26 25 24 23 23 22 22 21 21 20 20 20 21 21
26 25 24 23 23 23 25 26 27 28 27 25 26 26 22 18 18 17 16 16 15 17 19 21 23 25 25 26 26 25 24 24 23 23 23 23 22 21 21 21 22 22
23 22 21 21 22 21 21 22 22 20 18 17 19 23 21 18 20 20 18 17 17 17 19 21 22 24 25 26 26 26 25 25 24 24 24 23 23 22 22 23 23 23
20 19 19 20 21 21 20 21 22 20 16 13 13 17 19 20 22 21 19 18 18 19 21 22 23 23 24 24 25 26 26 26 25 24 23 23 23 23 24 24 24 24
20 20 19 19 19 19 19 19 20 20 18 17 16 17 19 22 22 20 18 16 16 18 21 23 23 23 22 23 24 24 25 25 24 23 23 23 24 24 25 25 25 26
20 20 20 20 20 20 19 19 20 20 20 20 20 20 20 21 21 20 18 16 15 17 19 21 23 23 22 22 22 23 23 23 23 23 23 24 25 25 26 26 27 28
19 20 20 20 21 21 22 22 22 22 22 23 23 22 21 20 20 20 20 20 18 17 18 20 22 24 24 24 23 23 23 23 23 24 24 25 25 26 27 28 29 30
20 20 20 21 21 21 22 23 23 23 23 23 23 23 22 23 23 23 23 23 22 21 21 21 22 24 26 26 26 25 24 24 24 25 25 26 26 27 28 29 30 31
21 21 22 22 22 22 22 22 22 22 21 22 23 23 24 25 25 25 24 25 26 27 26 24 24 25 27 28 28 27 27 26 26 26 26 27 28 29 30 31 32 33
23 24 24 24 24 24 24 24 25 25 24 24 25 24 23 25 27 28 29 29 28 29 28 27 27 27 28 30 30 30 29 29 28 29 30 31 31 32 33 34 35 36
26 27 27 27 27 27 27 27 29 29 28 28 28 26 26 28 31 31 32 31 30 30 30 30 30 31 31 32 33 34 33 33 33 33 34 35 36 37 38 39 40 41
28 29 29 30 29 29 30 30 30 30 31 31 31 30 31 33 34 34 34 33 32 33 33 34 35 35 35 36 36 37 38 39 40 40 40 40 41 41 42 43 44 45
29 30 31 32 31 31 32 32 32 32 33 33 33 34 35 35 36 37 37 37 37 37 37 38 39 40 41 41 41 42 44 45 46 47 47 46 46 46 46 47 48 48
Wind_Direction
214 215 215 217 217 215 213 215 219 222 225 227 225 224 225 228 231 231 227 221 217 217 221 228 235 241 246 249 252 256 258 261 263 264 263 260 256 252 248 248 252 255
214 214 214 214 213 211 211 215 219 223 226 226 224 223 225 229 233 236 236 230 224 223 227 233 240 246 250 253 256 259 261 262 264 265 264 263 259 253 248 247 250 253
213 213 213 212 212 213 215 217 219 223 225 226 228 228 228 229 231 234 236 237 234 233 236 240 246 251 255 257 258 258 258 259 261 263 264 265 263 257 251 248 248 248
213 213 214 215 218 220 221 222 224 229 231 232 232 231 232 231 231 232 234 237 239 240 243 246 250 254 257 259 258 256 256 257 259 262 266 268 268 263 258 253 248 246
215 218 220 224 228 228 229 232 236 238 240 242 241 237 236 236 235 235 235 237 240 243 246 250 252 255 257 258 258 257 258 259 260 262 265 267 267 266 263 258 254 252
209 218 223 228 231 234 239 245 248 243 242 247 247 242 240 242 242 241 240 238 239 242 246 250 253 255 255 256 259 261 261 261 262 261 261 260 261 262 263 261 260 260
206 213 222 228 233 239 245 250 250 246 243 246 246 242 243 247 249 248 246 242 240 241 245 249 253 254 254 255 257 259 261 261 261 259 258 256 256 257 258 260 261 261
213 216 224 231 237 243 247 249 249 247 245 246 246 246 247 250 253 253 251 247 243 242 243 248 252 254 255 254 254 256 258 259 259 257 255 254 253 254 255 256 257 258
224 227 231 236 241 245 247 246 244 241 243 248 250 249 249 252 254 253 251 248 245 244 244 247 251 253 255 255 254 255 256 257 257 256 255 254 253 254 255 255 256 258
241 242 243 245 246 248 248 246 242 240 245 253 254 250 249 251 252 252 250 246 244 244 245 246 248 252 256 258 258 257 256 256 257 256 255 254 254 255 256 257 258 259
250 250 250 251 251 251 250 247 244 244 248 253 253 250 250 251 252 251 250 248 245 245 245 245 245 248 253 258 259 257 255 254 253 253 252 251 251 253 255 257 258 258
250 250 251 252 255 253 248 246 246 247 248 248 247 248 250 253 255 254 252 251 249 247 247 246 245 247 251 256 259 256 253 252 251 250 249 248 249 250 252 254 255 256
253 253 253 255 257 255 251 247 246 246 246 244 241 242 248 251 252 253 253 253 252 251 251 250 249 250 252 255 257 254 252 251 250 250 250 249 249 250 251 251 252 253
252 251 254 257 260 262 260 253 251 252 252 249 241 238 243 247 246 250 255 255 255 254 253 253 252 251 251 252 252 251 250 251 251 252 252 251 250 249 250 251 252 253
250 249 251 255 259 264 263 260 261 260 255 255 249 238 236 243 249 255 260 259 258 258 257 255 252 250 249 248 248 248 249 249 250 251 251 250 250 250 250 251 253 253
247 244 245 248 251 256 258 260 266 264 255 255 249 235 231 243 254 259 262 261 260 260 260 258 255 252 251 250 249 250 250 250 251 252 253 253 252 252 252 252 252 251
242 240 241 245 248 252 254 256 261 262 257 254 246 236 239 247 252 257 260 259 258 257 258 259 257 255 254 254 254 254 253 253 254 254 256 256 256 255 255 253 251 249
247 245 244 245 248 251 252 253 256 258 257 257 254 249 245 244 247 252 253 251 252 255 256 257 257 256 255 255 255 254 254 253 253 254 255 255 256 257 256 254 253 252
253 251 248 249 253 256 257 258 260 260 260 262 264 259 248 240 242 246 245 244 248 253 254 254 255 254 253 253 254 254 255 256 256 257 256 256 257 256 256 256 256 256
253 253 254 254 257 260 262 263 264 266 267 267 265 259 246 240 245 247 245 246 251 254 255 255 254 253 251 249 249 251 255 258 261 262 262 262 260 259 257 256 257 257
253 253 255 256 258 260 264 267 268 269 270 269 265 254 244 245 251 250 246 248 252 254 255 256 254 252 250 248 246 246 248 252 257 260 263 264 264 263 261 260 259 260
252 253 253 254 256 257 260 264 266 266 265 263 260 256 255 257 254 250 250 254 256 256 257 258 257 254 251 249 247 246 246 247 251 254 258 260 263 264 265 265 265 265
249 250 252 253 254 254 253 254 256 258 257 255 254 255 259 260 255 251 255 259 258 257 257 258 258 257 254 251 249 248 248 249 252 256 259 260 260 261 261 262 264 265
245 247 248 250 251 252 252 251 251 252 251 251 251 250 250 252 253 253 255 256 256 256 257 257 257 257 257 255 252 250 250 251 254 259 262 262 261 261 261 261 262 263
248 250 251 252 253 254 255 255 253 252 251 251 252 250 248 249 252 253 255 255 255 255 257 258 258 258 258 258 257 254 254 255 258 262 264 263 262 262 262 262 263 264
254 254 254 255 258 259 260 259 258 257 256 255 254 253 252 251 252 254 255 257 257 257 259 260 260 260 259 259 258 257 257 259 261 264 265 265 265 264 263 263 264 265